Regional Weather Roundup
Issued by NWS Sterling, VA

Home | Current Version | Previous Version | Text Only | Print | Product List | Glossary On
Versions: 1 2 3 4 5 6 7 8 9 10 11 12 13 14 15 16 17 18 19 20 21 22 23 24 25 26 27 28 29 30 31 32 33 34 35 36 37 38 39 40 41 42 43 44 45 46 47 48 49 50
000
ASUS41 KLWX 172210
RWRLWX

REGIONAL WEATHER ROUNDUP
NATIONAL WEATHER SERVICE BALTIMORE MD/WASHINGTON DC
500 PM EST WED DEC 17 2014

Note: "FAIR" indicates few or no clouds below 12,000 feet
with no significant weather and/or obstructions to visibility.
 TC=TEMPERATURE CELSIUS

 * =Non NWS site. Station does not report precipitation (e.g. rain,
    snow, etc.), thunder, or fog.

DCZ001-MDZ009-015-VAZ040>042-051-053>054-172300-
WASHINGTON METRO

CITY           SKY/WX    TMP DP  RH WIND       PRES   REMARKS
WASHINGTON NAT PTCLDY    50  26  39 NW13G18   30.00R
DULLES         PTCLDY    44  27  51 NW18G24   30.00R
ANDREWS AFB    CLEAR     47  28  48 NW10      29.98R
FT BELVOIR     CLEAR     48  28  46 NW9       30.00R
QUANTICO       PTCLDY    50  31  48 N14G24    30.00R
COLLEGE PARK*  CLEAR     48  27  43 NW6       30.00R
LEESBURG*      CLEAR     45  30  57 NW18G25   30.02R
MANASSAS*      CLEAR     46  32  57 N8        30.00
GAITHERSBURG*  CLEAR     43  25  49 NW16G23   30.03R

$$

MDZ006>007-011-014-172300-
BALTIMORE METRO

CITY           SKY/WX    TMP DP  RH WIND       PRES   REMARKS
BWI AIRPORT    PTCLDY    46  28  49 NW10      29.98R
MD SCIENCE CTR   N/A     45  27  49 MISG      29.98R
MARTIN STATE   PTCLDY    46  30  53 W23       29.99R
ANNAPOLIS      CLEAR     49  29  46 NW9       29.98R
FORT MEADE*    CLEAR     45  30  57 NW9       30.01R

$$

MDZ012-015-019>023-172300-
MARYLAND EASTERN SHORE

CITY           SKY/WX    TMP DP  RH WIND       PRES   REMARKS
OCEAN CITY     CLEAR     50  34  54 W3        29.95R
SALISBURY      CLEAR     51  33  50 W5        29.95R
BAY BRIDGE AP*   N/A     46  32  57 NW12      29.98R
CAMBRIDGE*     PTCLDY    52  32  46 NW9G16    29.95S
EASTON*        PTCLDY    48  34  57 NW10      30.00R

$$

MDZ017>025-172300-
SOUTHERN MARYLAND

CITY           SKY/WX    TMP DP  RH WIND       PRES   REMARKS
PATUXENT RIVER PTCLDY    50  35  56 NW10      29.96R
ST INIGOES     CLEAR     50  37  61 W6        29.96R
LEONARDTOWN*   CLEAR     50  34  53 CALM      29.98R

$$

MDZ003>005-172300-
NORTH CENTRAL MARYLAND

CITY           SKY/WX    TMP DP  RH WIND       PRES   REMARKS
FREDERICK*     MOCLDY    46  25  42 NW13      30.05R
HAGERSTOWN APT MOCLDY    40  25  55 NW13      30.02R
WESTMINSTER*   PTCLDY    43  27  52 NW10G20   29.99R

$$

MDZ501>502-172300-
WESTERN MARYLAND

CITY           SKY/WX    TMP DP  RH WIND       PRES   REMARKS
OAKLAND*       CLOUDY    27 N/A N/A W12G23    29.97S WCI  16
CUMBERLAND*    CLOUDY    37  25  60 W9        30.10S

$$

VAZ025>031-172300-
SHENANDOAH VALLEY

CITY           SKY/WX    TMP DP  RH WIND       PRES   REMARKS
WINCHESTER*    CLEAR     41  21  45 NW18      30.02S
FRONT ROYAL*   FAIR      43  27  52 NW6       30.00R
LURAY*         FAIR      46  25  42 W7        30.00S
NEW MARKET*    FAIR      44  23  44 NW5       30.01R
STAUNTON*      CLEAR     46  20  35 CALM      30.01R
WAYNESBORO*    FAIR      44  23  42 SW6       29.99S

$$

WVZ021-048>050-054>055-172300-
EASTERN WEST VIRGINIA PANHANDLE

CITY           SKY/WX    TMP DP  RH WIND       PRES   REMARKS
MARTINSBURG    CLOUDY    42  23  46 NW12      30.03R
PETERSBURG*    MOCLDY    40  24  52 SW5       30.07R

$$

VAZ036>039-050-172300-
CENTRAL FOOTHILLS

CITY           SKY/WX    TMP DP  RH WIND       PRES   REMARKS
CHARLOTTESVILL CLEAR     49  27  42 CALM      29.99R
CULPEPER*      CLEAR     50  21  32 NW6       29.99S
ORANGE*        CLEAR     50  28  43 W5        30.00R
GORDONSVILLE*  FAIR      49  30  47 CALM      29.98R
WARRENTON*     FAIR      46  36  69 NW5       29.98R

$$

VAZ055>057-172300-
NORTH AND CENTRAL PIEDMONT

CITY           SKY/WX    TMP DP  RH WIND       PRES   REMARKS
FREDERICKSBRG* CLEAR     54  31  41 N6        29.98R
STAFFORD*      CLEAR     48  32  53 N6        30.02R

$$

NCZ024-NYZ072-PAZ021-071-VAZ022-071-172300-
OTHER REGIONAL OBSERVATIONS

CITY           SKY/WX    TMP DP  RH WIND       PRES   REMARKS
NEW YORK CITY  CLOUDY    49  36  61 W7        29.87R
PHILADELPHIA   MOCLDY    48  30  49 W15       29.94R
PITTSBURGH     CLOUDY    32  24  72 W10       30.07S WCI  24
ROANOKE        MOCLDY    47  26  44 NW8       30.07R
RICHMOND       MOCLDY    54  33  45 W7        29.99R
RALEIGH        PTCLDY    55  34  45 W3        30.04R

$$

ANZ530>537-172300-
MARINE OBSERVATIONS

STATION/POSITION TIME  TEMP    WIND        PRES
                       AIR SEA DIR/SP/G
                 (UTC) (F)     (DEG/KT/KT) (MB)
THOMAS PT LIGHT  2200   49 43  300/ 16/ 19 1016.1R
BALT KEY BRIDGE  2200   47     290/ 15/ 18 1014.9R
COVE POINT       2200   51     350/ 17/ 19 1014.5R
LEWISETTA        2200   51 45     CALM     1014.3R
SOLOMONS ISLAND  2200      45                N/A
PINEY POINT      2200          320/ 14/ 14   N/A

$$



USA.gov is the U.S. government's official web portal to all federal, state and local government web resources and services.